Regional Weather Roundup
Issued by NWS

Home | Current Version | Previous Version | Text Only | Print | Product List | Glossary On
Versions: 1 2 3 4 5 6 7 8 9 10 11 12 13 14 15 16 17 18 19 20 21 22 23 24 25 26 27 28 29 30 31 32 33 34 35 36 37 38 39 40 41 42 43 44 45 46 47 48 49 50
666
ASUS43 KLSX 281810
RWRMO

WEATHER SUMMARY FOR MISSOURI
NATIONAL WEATHER SERVICE SPRINGFIELD MO
100 PM CDT SUN MAY 28 2017

NOTE: "FAIR" INDICATES FEW OR NO CLOUDS BELOW 12,000 FEET WITH NO
       SIGNIFICANT WEATHER AND/OR OBSTRUCTIONS TO VISIBILITY.
       CURRENT SKY AND/OR WEATHER CONDITIONS ARE NOT AVAILABLE FOR
       CHILLICOTHE AND FARMINGTON.

MOZ001>031-035>038-043-044-053-054-281900-
...NORTHERN AND WESTERN MISSOURI...

CITY           SKY/WX    TMP DP  RH WIND       PRES   REMARKS
KANSAS CTY INT SUNNY     77  54  44 W8G21     29.95S
6HR MIN TEMP:  59; 6HR MAX TEMP:  77;

KANSAS C DTWN  SUNNY     79  53  40 NW10      29.94S
6HR MIN TEMP:  61; 6HR MAX TEMP:  79;

LEE`S SUMMIT   SUNNY     77  53  43 NW10      29.96S
6HR MIN TEMP:  59; 6HR MAX TEMP:  77;

ST JOSEPH      SUNNY     78  54  43 W13       29.94R
6HR MIN TEMP:  60; 6HR MAX TEMP:  79;

CHILLICOTHE      N/A     77  54  44 VRB5      29.91S
6HR MIN TEMP:  58; 6HR MAX TEMP:  77;

KIRKSVILLE     SUNNY     77  53  43 W10G18    29.89S
6HR MIN TEMP:  58; 6HR MAX TEMP:  77;


$$
MOZ066>068-077>081-088>096-101>105-281900-
...SOUTHWEST MISSOURI...

CITY           SKY/WX    TMP DP  RH WIND       PRES   REMARKS
SPRINGFIELD    SUNNY     74  60  61 NW9       29.97S
6HR MIN TEMP:  63; 6HR MAX TEMP:  74;

JOPLIN         MOSUNNY   77  60  55 NW8       30.01S
6HR MIN TEMP:  64; 6HR MAX TEMP:  78;

BRANSON        MOSUNNY   73  63  68 NW12      29.97S

$$
MOZ032>034-039>042-045>050-055>058-069>072-281900-
...CENTRAL MISSOURI...

CITY           SKY/WX    TMP DP  RH WIND       PRES   REMARKS
COLUMBIA       MOSUNNY   75  60  59 NW13      29.91S
6HR MIN TEMP:  62; 6HR MAX TEMP:  75;

JEFFERSON CITY SUNNY     77  58  51 W15       29.90S
6HR MIN TEMP:  63; 6HR MAX TEMP:  77;

ROLLA          PTSUNNY   69  65  86 NW9       29.90F
6HR MIN TEMP:  60; 6HR MAX TEMP:  70;

SEDALIA        MOSUNNY   75  60  59 W10       29.96S
6HR MIN TEMP:  62; 6HR MAX TEMP:  76;

WHITEMAN AFB   SUNNY     75  56  51 W10       29.94S
WARRENSBURG    SUNNY     73  55  53 W8        29.95S
OSAGE BEACH    PTSUNNY   74  62  66 VRB7      29.94S

$$
MOZ051-052-059>065-281900-
...EAST CENTRAL MISSOURI...

CITY           SKY/WX    TMP DP  RH WIND       PRES   REMARKS
ST LOUIS INTL  CLOUDY    75  64  68 W9        29.85F
6HR MIN TEMP:  65; 6HR MAX TEMP:  75; 6HR PCP: TRACE;

SPIRIT OF STL  PTSUNNY   72  66  81 W10       29.85F
6HR MIN TEMP:  62; 6HR MAX TEMP:  72;

ST CHARLES     MOSUNNY   75  65  70 W10       29.83F
6HR MIN TEMP:  64; 6HR MAX TEMP:  75;


$$
MOZ072>076-082>087-097>100-106>115-281900-
...SOUTH CENTRAL AND SOUTHEAST MISSOURI...

CITY           SKY/WX    TMP DP  RH WIND       PRES   REMARKS
CAPE GIRARDEAU CLOUDY    73  64  73 SW14      29.87S
6HR MIN TEMP:  65; 6HR MAX TEMP:  73;

FARMINGTON     CLOUDY    73  64  73 W12       29.87F
POPLAR BLUFF   CLOUDY    71  65  81 W7        29.89S
6HR MIN TEMP:  65; 6HR MAX TEMP:  71;

WEST PLAINS    PTSUNNY   73  65  75 W8        29.92S
6HR MIN TEMP:  63; 6HR MAX TEMP:  73;


$$




USA.gov is the U.S. government's official web portal to all federal, state and local government web resources and services.